カタログに戻る

NOAA 16 DEB

運用中PO
NORAD 41156·DEBRIS·🇺🇸 United States

打ち上げ Sep 21, 2000 から Vandenberg Space Force Base

Loading…

次のパス (今後24時間)

TLE

最新Source: Space-Track

元期: Sep 14, 2026, 05:26 UTC

1 41156U 00055CP  26257.22646195  .00022482  00000-0  23813-2 0  9991
2 41156  98.9323 176.7431 0025193  27.9860 332.2702 14.88913265566007

AllMySatでNOAA 16 DEBをリアルタイム追跡

Download on the App Store